Regional Weather Roundup
Issued by NWS

Home | Current Version | Previous Version | Graphics & Text | Print | Product List | Glossary Off
Versions: 1 2 3 4 5 6 7 8 9 10 11 12 13 14 15 16 17 18 19 20 21 22 23 24 25 26 27 28 29 30 31 32 33 34 35 36 37 38 39 40 41 42 43 44 45 46 47 48 49 50

000
ASUS43 KTOP 220208
RWRKS

WEATHER ROUNDUP FOR KANSAS
NATIONAL WEATHER SERVICE GOODLAND KS
900 PM CDT THU SEP 21 2017

NOTE:  "FAIR" INDICATES FEW OR NO CLOUDS BELOW 12,000 FEET WITH NO
SIGNIFICANT WEATHER AND/OR OBSTRUCTIONS TO VISIBILITY.

KSZ001>006-013>018-027>032-041>047-220300-
NORTHWEST KANSAS

CITY           SKY/WX    TMP DP  RH WIND       PRES   REMARKS
GOODLAND       CLEAR     77  34  21 S13       29.68R
HAYS           CLEAR     89  64  43 S22G31    29.70R
HILL CITY      CLEAR     84  42  22 S13       29.69R
RUSSELL        CLEAR     89  62  40 S23G33    29.71R
$$

KSZ061>065-074>080-084>089-220300-
SOUTHWEST KANSAS

CITY           SKY/WX    TMP DP  RH WIND       PRES   REMARKS
DODGE CITY     CLEAR     86  64  47 S22G33    29.76R
ELKHART          N/A     75  47  37 SE10        N/A
GARDEN CITY    CLEAR     77  44  30 S10       29.74R
GREAT BEND     CLEAR     87  66  49 S22G29    29.75R
LIBERAL        CLEAR     80  56  43 S16       29.77R
PRATT          CLEAR     85  66  52 S23G30    29.79R
$$

KSZ066>073-081>083-090>101-220300-
SOUTHEAST KANSAS

CITY           SKY/WX    TMP DP  RH WIND       PRES   REMARKS
CHANUTE        CLEAR     80  73  79 SE8       29.89R
COFFEYVILLE    CLEAR     82  72  71 S9        29.88R
HUTCHINSON     CLEAR     88  70  55 S20G30    29.78R
MEDICINE LODGE   N/A     86  67  52 S14G21    29.79R
NEWTON         CLEAR     83  72  69 S20G30    29.83R
WICHITA INTL   CLEAR     84  73  69 S21G26    29.81R
WICHITA JABRA  CLEAR     83  73  72 S18       29.82R
WICHITA MCCONL CLEAR     84  71  64 S21       29.83R
WINFIELD       CLEAR     84  72  67 S21G28    29.85R
$$

KSZ007>012-019>026-033>040-048>060-102>105-220300-
NORTHEAST KANSAS

CITY           SKY/WX    TMP DP  RH WIND       PRES   REMARKS
CONCORDIA      CLEAR     86  72  62 S21G30    29.73R
EMPORIA        CLEAR     82  70  66 S17G25    29.84R
LAWRENCE       CLEAR     83  74  74 SE15      29.85R
MANHATTAN      CLEAR     86  73  65 S12       29.78R
MARYSVILLE     CLEAR     84  73  70 S15G23    29.78R
OLATHE IND     CLEAR     81  73  76 S13       29.88R
OLATHE EXE     CLEAR     80  73  79 S12       29.88R
SALINA         CLEAR     89  71  55 S22G35    29.75R HX  95
TOPEKA BILLARD CLEAR     84  75  74 SE17G30   29.82R
TOPEKA FORBES  CLEAR     84  74  71 SE15G22   29.84R
$$




USA.gov is the U.S. government's official web portal to all federal, state and local government web resources and services.